Time,TemperatureF,DewpointF,PressureIn,WindDirection,WindDirectionDegrees,WindSpeedMPH,WindSpeedGustMPH,Humidity,HourlyPrecipIn,Conditions,Clouds,dailyrainin,SolarRadiationWatts/m^2,SoftwareType,DateUTC
2013-07-19 00:00:00,79.0,69.0,-100.00,SW,225,3.0,-999.0,70,-99.99,,,-99.99,0.000000,,2013-07-19 04:00:00,
2013-07-19 00:44:00,79.0,69.0,-100.00,SW,225,3.0,-999.0,70,-99.99,,,-99.99,0.000000,,2013-07-19 04:44:00,
2013-07-19 00:52:00,79.0,69.0,-100.00,SW,225,3.0,-999.0,70,-99.99,,,-99.99,0.000000,,2013-07-19 04:52:00,
2013-07-19 01:00:00,77.0,69.0,-100.00,SW,225,3.0,-999.0,76,-99.99,,,-99.99,0.000000,,2013-07-19 05:00:00,
2013-07-19 01:43:00,77.0,69.0,-100.00,SW,225,3.0,-999.0,76,-99.99,,,-99.99,0.000000,,2013-07-19 05:43:00,
2013-07-19 01:53:00,77.0,69.0,-100.00,SW,225,3.0,-999.0,76,-99.99,,,-99.99,0.000000,,2013-07-19 05:53:00,
2013-07-19 02:00:00,76.0,70.0,-100.00,SW,225,2.0,-999.0,80,-99.99,,,-99.99,0.000000,,2013-07-19 06:00:00,
2013-07-19 02:43:00,76.0,70.0,-100.00,SW,225,2.0,-999.0,80,-99.99,,,-99.99,0.000000,,2013-07-19 06:43:00,
2013-07-19 02:53:00,76.0,70.0,-100.00,SW,225,2.0,-999.0,80,-99.99,,,-99.99,0.000000,,2013-07-19 06:53:00,
2013-07-19 03:00:00,77.0,70.0,-100.00,SW,225,3.0,-999.0,80,-99.99,,,-99.99,0.000000,,2013-07-19 07:00:00,
2013-07-19 03:43:00,77.0,70.0,-100.00,SW,225,3.0,-999.0,80,-99.99,,,-99.99,0.000000,,2013-07-19 07:43:00,
2013-07-19 03:53:00,77.0,70.0,-100.00,SW,225,3.0,-999.0,80,-99.99,,,-99.99,0.000000,,2013-07-19 07:53:00,
2013-07-19 04:00:00,77.0,71.0,-100.00,SW,225,4.0,-999.0,81,-99.99,,,-99.99,0.000000,,2013-07-19 08:00:00,
2013-07-19 04:43:00,77.0,71.0,-100.00,SW,225,4.0,-999.0,81,-99.99,,,-99.99,0.000000,,2013-07-19 08:43:00,
2013-07-19 04:52:00,77.0,71.0,-100.00,SW,225,4.0,-999.0,81,-99.99,,,-99.99,0.000000,,2013-07-19 08:52:00,
2013-07-19 05:00:00,78.0,71.0,-100.00,SW,225,6.0,-999.0,78,-99.99,,,-99.99,0.000000,,2013-07-19 09:00:00,
2013-07-19 05:43:00,78.0,71.0,-100.00,SW,225,6.0,-999.0,78,-99.99,,,-99.99,0.000000,,2013-07-19 09:43:00,
2013-07-19 05:52:00,78.0,71.0,-100.00,SW,225,6.0,-999.0,78,-99.99,,,-99.99,0.000000,,2013-07-19 09:52:00,
2013-07-19 06:00:00,79.0,71.0,-100.00,WSW,247,7.0,-999.0,75,-99.99,,,-99.99,0.000000,,2013-07-19 10:00:00,
2013-07-19 06:43:00,79.0,71.0,-100.00,WSW,247,7.0,-999.0,75,-99.99,,,-99.99,0.000000,,2013-07-19 10:43:00,
2013-07-19 06:52:00,79.0,71.0,-100.00,WSW,247,7.0,-999.0,75,-99.99,,,-99.99,0.000000,,2013-07-19 10:52:00,
2013-07-19 07:00:00,79.0,70.0,-100.00,WSW,247,7.0,-999.0,74,-99.99,,,-99.99,8.120000,,2013-07-19 11:00:00,
2013-07-19 07:43:00,79.0,70.0,-100.00,WSW,247,7.0,-999.0,74,-99.99,,,-99.99,8.120000,,2013-07-19 11:43:00,
2013-07-19 07:52:00,79.0,70.0,-100.00,WSW,247,7.0,-999.0,74,-99.99,,,-99.99,8.120000,,2013-07-19 11:52:00,
2013-07-19 08:00:00,80.0,70.0,-100.00,WSW,247,8.0,-999.0,72,-99.99,,,-99.99,113.680000,,2013-07-19 12:00:00,
2013-07-19 08:44:00,80.0,70.0,-100.00,WSW,247,8.0,-999.0,72,-99.99,,,-99.99,113.680000,,2013-07-19 12:44:00,
2013-07-19 08:53:00,80.0,70.0,-100.00,WSW,247,8.0,-999.0,72,-99.99,,,-99.99,113.680000,,2013-07-19 12:53:00,
2013-07-19 09:00:00,81.0,70.0,-100.00,WSW,247,9.0,-999.0,69,-99.99,,,-99.99,267.959991,,2013-07-19 13:00:00,
2013-07-19 09:43:00,81.0,70.0,-100.00,WSW,247,9.0,-999.0,69,-99.99,,,-99.99,267.959991,,2013-07-19 13:43:00,
2013-07-19 09:53:00,81.0,70.0,-100.00,WSW,247,9.0,-999.0,69,-99.99,,,-99.99,267.959991,,2013-07-19 13:53:00,
2013-07-19 10:00:00,83.0,69.0,-100.00,WSW,247,10.0,-999.0,63,-99.99,,,-99.99,402.519989,,2013-07-19 14:00:00,
2013-07-19 10:43:00,83.0,69.0,-100.00,WSW,247,10.0,-999.0,63,-99.99,,,-99.99,402.519989,,2013-07-19 14:43:00,
2013-07-19 10:53:00,83.0,69.0,-100.00,WSW,247,10.0,-999.0,63,-99.99,,,-99.99,402.519989,,2013-07-19 14:53:00,
2013-07-19 11:00:00,84.0,69.0,-100.00,WSW,247,11.0,-999.0,59,-99.99,,,-99.99,501.119995,,2013-07-19 15:00:00,
2013-07-19 11:43:00,84.0,69.0,-100.00,WSW,247,11.0,-999.0,59,-99.99,,,-99.99,501.119995,,2013-07-19 15:43:00,
2013-07-19 11:52:00,84.0,69.0,-100.00,WSW,247,11.0,-999.0,59,-99.99,,,-99.99,501.119995,,2013-07-19 15:52:00,
2013-07-19 12:00:00,85.0,68.0,-100.00,WSW,247,13.0,-999.0,57,-99.99,,,-99.99,634.520020,,2013-07-19 16:00:00,
2013-07-19 12:43:00,85.0,68.0,-100.00,WSW,247,13.0,-999.0,57,-99.99,,,-99.99,634.520020,,2013-07-19 16:43:00,
2013-07-19 12:53:00,85.0,68.0,-100.00,WSW,247,13.0,-999.0,57,-99.99,,,-99.99,634.520020,,2013-07-19 16:53:00,
2013-07-19 13:00:00,86.0,69.0,-100.00,WSW,247,12.0,-999.0,56,-99.99,,,-99.99,705.280029,,2013-07-19 17:00:00,
2013-07-19 13:43:00,86.0,69.0,-100.00,WSW,247,12.0,-999.0,56,-99.99,,,-99.99,705.280029,,2013-07-19 17:43:00,
2013-07-19 13:52:00,86.0,69.0,-100.00,WSW,247,12.0,-999.0,56,-99.99,,,-99.99,705.280029,,2013-07-19 17:52:00,
2013-07-19 14:00:00,87.0,68.0,-100.00,WSW,247,13.0,-999.0,53,-99.99,,,-99.99,600.880005,,2013-07-19 18:00:00,
2013-07-19 14:43:00,87.0,68.0,-100.00,WSW,247,13.0,-999.0,53,-99.99,,,-99.99,600.880005,,2013-07-19 18:43:00,
2013-07-19 14:52:00,87.0,68.0,-100.00,WSW,247,13.0,-999.0,53,-99.99,,,-99.99,600.880005,,2013-07-19 18:52:00,
2013-07-19 15:00:00,88.0,68.0,-100.00,WSW,247,13.0,-999.0,52,-99.99,,,-99.99,667.000000,,2013-07-19 19:00:00,
2013-07-19 15:52:00,88.0,68.0,-100.00,WSW,247,13.0,-999.0,52,-99.99,,,-99.99,667.000000,,2013-07-19 19:52:00,
2013-07-19 16:00:00,86.0,68.0,-100.00,WSW,247,11.0,-999.0,55,-99.99,,,-99.99,438.480011,,2013-07-19 20:00:00,
2013-07-19 16:43:00,86.0,68.0,-100.00,WSW,247,11.0,-999.0,55,-99.99,,,-99.99,438.480011,,2013-07-19 20:43:00,
2013-07-19 16:52:00,86.0,68.0,-100.00,WSW,247,11.0,-999.0,55,-99.99,,,-99.99,438.480011,,2013-07-19 20:52:00,
2013-07-19 17:00:00,85.0,68.0,-100.00,WSW,247,10.0,-999.0,55,-99.99,,,-99.99,465.160004,,2013-07-19 21:00:00,
2013-07-19 17:43:00,85.0,68.0,-100.00,WSW,247,10.0,-999.0,55,-99.99,,,-99.99,465.160004,,2013-07-19 21:43:00,
2013-07-19 17:52:00,85.0,68.0,-100.00,WSW,247,10.0,-999.0,55,-99.99,,,-99.99,465.160004,,2013-07-19 21:52:00,
2013-07-19 18:00:00,87.0,69.0,-100.00,WSW,247,9.0,-999.0,55,-99.99,,,-99.99,373.519989,,2013-07-19 22:00:00,
2013-07-19 18:43:00,87.0,69.0,-100.00,WSW,247,9.0,-999.0,55,-99.99,,,-99.99,373.519989,,2013-07-19 22:43:00,
2013-07-19 18:52:00,87.0,69.0,-100.00,WSW,247,9.0,-999.0,55,-99.99,,,-99.99,373.519989,,2013-07-19 22:52:00,
2013-07-19 19:00:00,87.0,69.0,-100.00,West,270,9.0,-999.0,56,-99.99,,,-99.99,354.959991,,2013-07-19 23:00:00,
2013-07-19 19:43:00,87.0,69.0,-100.00,West,270,9.0,-999.0,56,-99.99,,,-99.99,354.959991,,2013-07-19 23:43:00,
2013-07-19 19:52:00,87.0,69.0,-100.00,West,270,9.0,-999.0,56,-99.99,,,-99.99,354.959991,,2013-07-19 23:52:00,
2013-07-19 20:00:00,85.0,70.0,-100.00,West,270,7.0,-999.0,59,-99.99,,,-99.99,183.279999,,2013-07-20 00:00:00,
2013-07-19 20:43:00,85.0,70.0,-100.00,West,270,7.0,-999.0,59,-99.99,,,-99.99,183.279999,,2013-07-20 00:43:00,
2013-07-19 20:52:00,85.0,70.0,-100.00,West,270,7.0,-999.0,59,-99.99,,,-99.99,183.279999,,2013-07-20 00:52:00,
2013-07-19 21:00:00,83.0,69.0,-100.00,West,270,6.0,-999.0,63,-99.99,,,-99.99,73.080002,,2013-07-20 01:00:00,
2013-07-19 21:32:00,83.0,69.0,-100.00,West,270,6.0,-999.0,63,-99.99,,,-99.99,73.080002,,2013-07-20 01:32:00,
2013-07-19 21:52:00,83.0,69.0,-100.00,West,270,6.0,-999.0,63,-99.99,,,-99.99,73.080002,,2013-07-20 01:52:00,
2013-07-19 22:00:00,80.0,69.0,-100.00,West,270,3.0,-999.0,70,-99.99,,,-99.99,2.320000,,2013-07-20 02:00:00,
2013-07-19 22:33:00,80.0,69.0,-100.00,West,270,3.0,-999.0,70,-99.99,,,-99.99,2.320000,,2013-07-20 02:33:00,
2013-07-19 22:44:00,80.0,69.0,-100.00,West,270,3.0,-999.0,70,-99.99,,,-99.99,2.320000,,2013-07-20 02:44:00,
2013-07-19 22:52:00,80.0,69.0,-100.00,West,270,3.0,-999.0,70,-99.99,,,-99.99,2.320000,,2013-07-20 02:52:00,
2013-07-19 23:00:00,78.0,69.0,-100.00,West,270,3.0,-999.0,74,-99.99,,,-99.99,0.000000,,2013-07-20 03:00:00,
2013-07-19 23:44:00,78.0,69.0,-100.00,West,270,3.0,-999.0,74,-99.99,,,-99.99,0.000000,,2013-07-20 03:44:00,
2013-07-19 23:53:00,78.0,69.0,-100.00,West,270,3.0,-999.0,74,-99.99,,,-99.99,0.000000,,2013-07-20 03:53:00,